Regional Weather Roundup
Issued by NWS Little Rock, AR

Home | Current Version | Previous Version | Text Only | Print | Product List | Glossary On
Versions: 1 2 3 4 5 6 7 8 9 10 11 12 13 14 15 16 17 18 19 20 21 22 23 24 25 26 27 28 29 30 31 32 33 34 35 36 37 38 39 40 41 42 43 44 45
000
ASUS44 KLZK 021105
RWRLZK

WEATHER ROUNDUP FOR ARKANSAS
NATIONAL WEATHER SERVICE LITTLE ROCK AR
600 AM CDT THU OCT 02 2014

NOTE: "FAIR" INDICATES FEW OR NO CLOUDS BELOW 12,000 FEET WITH NO
SIGNIFICANT WEATHER AND/OR OBSTRUCTIONS TO VISIBILITY.

ARZ001-003-010-029-021200-
NORTHWEST ARKANSAS

CITY           SKY/WX    TMP DP  RH WIND       PRES   REMARKS
FAYETTEVILLE   CLOUDY    73  70  90 S10G21    29.83R
FORT SMITH     CLOUDY    75  70  84 E5        29.81R
HARRISON       CLOUDY    74  69  85 S8        29.84R
BENTONVILLE    CLOUDY    73  68  83 S7        29.83R
ROGERS         MOCLDY    72  68  87 S10       29.83R
SILOAM SPGS    CLOUDY    73  64  73 S15G21    29.82R
HIGHFILL       CLOUDY    73  69  87 S12       29.81R
$$

ARZ004-005-016-021200-
NORTH CENTRAL ARKANSAS

CITY           SKY/WX    TMP DP  RH WIND       PRES   REMARKS
BATESVILLE     MOCLDY    73  68  83 SE12G17   29.86R
FLIPPIN        MOCLDY    72  64  78 CALM      29.84R
MTN HOME       CLOUDY    72  69  90 SE3       29.84R
$$

ARZ040-041-021200-
WEST CENTRAL ARKANSAS

CITY           SKY/WX    TMP DP  RH WIND       PRES   REMARKS
MENA           CLOUDY    77  73  88 CALM      29.86R
MOUNT IDA      CLOUDY    77  71  82 VRB3      29.83R
$$

ARZ009-017-025-026-028-021200-
NORTHEAST ARKANSAS

CITY           SKY/WX    TMP DP  RH WIND       PRES   REMARKS
CORNING          N/A     72  66  83 S8        29.88R
JONESBORO      CLEAR     69  65  86 S7        29.89R
NEWPORT        PTCLDY    73  69  87 S9        29.88R
WALNUT RIDGE   CLOUDY    70  64  83 S5        29.87R
BLYTHEVILLE    CLEAR     70  64  81 S7        29.91R
$$

ARZ022-023-033-042-044-021200-
CENTRAL ARKANSAS

CITY           SKY/WX    TMP DP  RH WIND       PRES   REMARKS
LITTLE ROCK    CLOUDY    75  71  87 S10       29.86R
N LITTLE ROCK    N/A     74  73  96 S7        29.86R
JACKSONVILLE   CLOUDY    73  70  91 SE5       29.87R
SEARCY         CLOUDY    72  69  90 S5        29.88R
HOT SPRINGS    CLOUDY    76  71  85 S8        29.86R
RUSSELLVILLE   CLOUDY    75  71  87 CALM      29.84R
CLINTON        CLOUDY    70  70 100 CALM      29.86R FOG
$$

ARZ036-021200-
EAST ARKANSAS

CITY           SKY/WX    TMP DP  RH WIND       PRES   REMARKS
WEST MEMPHIS   CLEAR     72  70  93 S9        29.90R
$$

ARZ050-053-066-070-073-021200-
SOUTHWEST ARKANSAS

CITY           SKY/WX    TMP DP  RH WIND       PRES   REMARKS
ARKADELPHIA    CLOUDY    74  74 100 CALM      29.86S FOG
CAMDEN         MOCLDY    75  72  88 S6        29.87R
TEXARKANA      CLOUDY    75  74  96 S7        29.86R
EL DORADO      MOCLDY    74  73  97 SE3       29.89R
DE QUEEN       MOCLDY    74  72  93 S6        29.82R
$$

ARZ056-057-069-021200-
SOUTHEAST ARKANSAS

CITY           SKY/WX    TMP DP  RH WIND       PRES   REMARKS
PINE BLUFF     CLOUDY    75  72  90 S12       29.88R
STUTTGART      CLOUDY   N/A N/A N/A S12       29.89R
MONTICELLO     CLOUDY    76  72  87 S6        29.90R

$$




USA.gov is the U.S. government's official web portal to all federal, state and local government web resources and services.